Weather in Dubrovnik

Croatia     42°39′01″N   18°05′20″E
В апреле 2022 года жителям России запретили посещать сайт meteo.paraplan.net по решению Генеральной прокуратуры. Аудитория сайта уменьшилась в 10 раз. Владельцы сайта не видят смысла в поддержке погодного сервера в таких условиях. Сайт будет закрыт в октябре.
temp.,
°C
wind,
m/s
gust,
m/s
humid.,
%
clouds,
%
prec.,
mm/h
press.,
hPa
HPBL,
m
25 september, sun
sun2523:00+14ese346799 0.0 1020226
02:00+14e456285 0.0 1020328
05:00+13e465791 0.0 1018258
08:00+14e485267 0.0 1018424
11:00+17se91275100 0.1 1018936
14:00+15se81393100 5.4 1017802
17:00+16se6996100 7.9 1016549
20:00+16sse6994100 16.4 1016643
26 september, mon
mon2623:00+17sse7109298 3.6 1015748
02:00+18se6888100 7.6 1014400
05:00+18se6990100 2.0 1013496
08:00+18se71187100 4.8 1012604
11:00+18se7986100 1.2 1012700
14:00+16se4695100 7.4 1011369
17:00+16sse4597100 2.6 1010345
20:00+17sse5996100 3.9 1009768
27 september, tue
tue2723:00+17sse5895100 3.1 1008633
02:00+17se469287 5.5 1006367
05:00+17s478994 2.9 1005613
08:00+17sse348525 5.2 1005463
11:00+18ssw237646 1.8 1005773
14:00+19s46683 3.4 1005974
17:00+19se34660 0.1 1005517
20:00+17e34772 0.1 100677
28 september, wed
wed2823:00+16ene447822 0.1 100793
02:00+15e568290 0.2 1007278
05:00+15e468633 0.1 1006377
08:00+17sse688077 1.2 1007788
11:00+17sse7107676 1.8 10081129
14:00+19sse71070100 2.8 10071202
17:00+18se71073100 0.4 1006661
20:00+18se6117495 0.6 1006540
29 september, thu
thu2923:00+17se81281100 1.6 1006557
02:00+17se588544 4.6 1007269
05:00+17s4783100 1.8 1006547
08:00+17se468263 3.8 1007379
11:00+19se797418 1.1 1008914
14:00+20se897331 1.5 1009929
17:00+19se69725 0.0 1009702
20:00+17e47775 0.0 1011230